Regional Weather Roundup
Issued by NWS Kansas City/Pleasant Hill, MO

Home | Current Version | Previous Version | Text Only | Print | Product List | Glossary On
Versions: 1 2 3 4 5 6 7 8 9 10 11 12 13 14 15 16 17 18 19 20 21 22 23 24 25 26
000
ASUS43 KEAX 281410
RWREAX

WEATHER ROUNDUP FOR EASTERN KANSAS AND NORTHWEST MISSOURI
NATIONAL WEATHER SERVICE KANSAS CITY/PLEASANT HILL MO
900 AM CDT FRI JUL 28 2017

KSZ040-057-103>105-MOZ028-029-037-043-281500-
...KANSAS CITY METROPOLITAN AREA...

CITY           SKY/WX    TMP DP  RH WIND       PRES   REMARKS
K.C. INTL      PTSUNNY   75  67  76 E10       30.01S
K.C. DOWNTOWN  NOT AVBL
LEES SUMMIT    SUNNY     75  71  87 E8        30.00F
OLATHE - IXD   SUNNY     77  71  82 NE5       30.00S
OLATHE - OJC   SUNNY     75  72  90 NE8       30.00S
LAWRENCE       SUNNY     77  71  82 NE5       29.99S

$$

MOZ001>008-011>017-020>025-030>033-038>040-044>046-053-054-281500-
...NORTHERN AND CENTRAL MISSOURI...

CITY           SKY/WX    TMP DP  RH WIND       PRES   REMARKS
ST. JOSEPH     MOSUNNY   76  68  76 E5        30.02R
MOSBY          PTSUNNY   73  64  73 NE3       30.01
WHITEMAN AFB   MOSUNNY   74  74 100 N8        29.98R
CLINTON        CLOUDY    75  73  94 E8        29.99R
SEDALIA        MOSUNNY   76  73  91 NE12      30.00R
WARSAW         NOT AVBL
CHILLICOTHE      N/A     75  64  68 NE6       30.03R
KIRKSVILLE       N/A    N/A N/A N/A MISG      30.03R

$$

MOZ041-047>049-056>058-063>065-088>090-097-281500-
...EASTERN AND SOUTHERN MISSOURI...

CITY           SKY/WX    TMP DP  RH WIND       PRES   REMARKS
ST. LOUIS INTL MOSUNNY   76  63  64 N8        29.93R
SPIRIT OF STL  MOSUNNY   76  65  68 N8        29.93R
COLUMBIA       SUNNY     75  67  76 N7        29.98R
JEFFERSON CITY SUNNY     77  68  73 NE5       29.97R
ROLLA          MOSUNNY   75  71  87 NE8       29.97R
OSAGE BEACH    CLOUDY    74  72  93 N5        29.97R
SPRINGFIELD    MOSUNNY   79  73  82 NE8       29.95S
BRANSON        CLOUDY    75  75 100 CALM      29.96R
JOPLIN         CLOUDY    79  77  94 NE8       29.96R
WEST PLAINS    CLOUDY    75  72  90 N5        29.96R

$$

IAZ060-094-KSZ022-034>040-054-083-096-NEZ052-066-093-281500-
...KANSAS...SOUTHEAST NEBRASKA AND IOWA...

CITY           SKY/WX    TMP DP  RH WIND       PRES   REMARKS
TOPEKA         SUNNY     76  71  85 VRB5      30.00S
MANHATTAN      SUNNY     75  65  70 E6        30.02R
EMPORIA        MOSUNNY   76  69  79 N3        30.00F
CHANUTE        CLOUDY    80  72  76 MISG      29.98R
WICHITA        MOSUNNY   79  70  74 NE7       30.01R
OMAHA          PTSUNNY   70  65  84 N6        30.07R
LINCOLN        CLOUDY    72  65  78 NE7       30.07R
FALLS CITY     SUNNY     74  65  73 VRB5      30.03R
LAMONI         SUNNY     74  65  73 VRB3      30.05R
DES MOINES     PTSUNNY   74  62  66 E5        30.05R

$$





USA.gov is the U.S. government's official web portal to all federal, state and local government web resources and services.